Location: Belvedere Heights
(33.9836°N, 117.3109°W)
Time: 07:46:26
(UTC+00:00)

RS-44 - Visible Passes

Search period start: 21 May 2024 00:00
Search period end: 31 May 2024 00:00
Orbit: 1174 x 1511 km, 82.5° (Epoch: 20 May)

Date Brightness Start Highest point End Pass type
(mag) Time Alt. Az. Time Alt. Az. Time Alt. Az.
21 May ? 09:40:14 10° NE 09:41:39 11° ENE 09:43:05 10° ENE visible
21 May ? 11:28:50 10° N 11:36:03 84° E 11:43:33 10° S visible
22 May ? 10:00:51 10° NNE 10:05:56 20° ENE 10:11:06 10° ESE visible
22 May ? 11:52:42 10° NNW 11:59:43 59° W 12:07:02 10° S visible
23 May ? 10:23:32 10° NNE 10:29:59 34° ENE 10:36:38 10° SE visible
24 May ? 10:46:46 10° N 10:53:52 58° E 11:01:16 10° SSE visible
25 May ? 09:20:19 10° NE 09:23:25 13° ENE 09:26:34 10° E visible
25 May ? 11:10:23 10° N 11:17:37 86° W 11:25:14 10° S visible
26 May ? 09:42:01 10° NNE 09:47:37 23° ENE 09:53:23 10° SE visible
26 May ? 11:34:18 10° NNW 11:41:16 52° W 11:48:34 10° SSW visible
27 May ? 10:04:53 10° N 10:11:38 40° ENE 10:18:39 10° SE visible
27 May ? 11:58:38 10° NNW 12:04:47 31° W 12:11:12 10° SW visible
28 May ? 10:28:14 10° N 10:35:29 67° E 10:43:06 10° SSE visible
29 May ? 09:01:02 10° NE 09:05:10 16° ENE 09:09:23 10° ESE visible
29 May ? 10:51:56 10° N 10:59:12 76° W 11:06:54 10° S visible
30 May ? 09:23:15 10° NNE 09:29:18 27° ENE 09:35:36 10° SE visible
30 May ? 11:15:57 10° NNW 11:22:49 46° W 11:30:05 10° SSW visible
